Location: Bothwell
(42.3833°S, 147.0000°E)
Time: 01:43:49
(UTC+11:00)

COSMOS 2251 DEB - Visible Passes

Search period start: 12 December 2023 00:00
Search period end: 22 December 2023 00:00
Orbit: 650 x 759 km, 74.0° (Epoch: 04 December)

Date Brightness Start Highest point End Pass type
(mag) Time Alt. Az. Time Alt. Az. Time Alt. Az.
12 Dec ? 01:21:50 17° W 01:23:44 22° WSW 01:27:25 10° S visible
12 Dec ? 22:47:23 15° E 22:47:23 15° E 22:49:52 10° ESE visible
13 Dec ? 00:26:16 44° WNW 00:27:19 54° WSW 00:32:00 10° SSE visible
13 Dec ? 23:30:40 50° NE 23:31:14 54° ENE 23:35:52 10° SSE visible
14 Dec ? 01:09:33 11° W 01:12:18 18° SW 01:15:31 10° SSW visible
14 Dec ? 22:35:00 19° ENE 22:35:28 20° E 22:38:51 10° SE visible
15 Dec ? 00:13:53 28° WNW 00:15:46 42° WSW 00:20:20 10° S visible
15 Dec ? 23:18:08 42° N 23:19:36 71° ENE 23:24:22 10° SSE visible
16 Dec ? 00:58:19 10° W 01:00:53 14° SW 01:03:29 10° SSW visible
16 Dec ? 22:22:17 21° NE 22:23:45 25° E 22:27:39 10° SE visible
17 Dec ? 00:01:09 16° WNW 00:04:16 33° WSW 00:08:37 10° S visible
17 Dec ? 23:05:12 24° NNW 23:07:59 89° WSW 23:12:48 10° SSE visible
18 Dec ? 00:47:49 10° WSW 00:49:28 12° SW 00:51:08 10° SSW visible
18 Dec ? 22:09:07 17° NNE 22:12:03 32° E 22:16:18 10° SE visible
18 Dec ? 23:48:46 10° WNW 23:52:44 27° WSW 23:56:50 10° S visible
19 Dec ? 22:51:44 10° NNW 22:56:22 70° WSW 23:01:12 10° SSE visible
20 Dec ? 21:55:58 10° N 22:00:21 42° ENE 22:04:52 10° SSE visible
20 Dec ? 23:37:35 10° WNW 23:41:14 22° WSW 23:44:59 10° S visible
21 Dec ? 22:40:11 10° NW 22:44:46 54° WSW 22:49:31 10° SSE visible
